date:2025-07-07T11:00:31+00:00
validtle:1
satid:61072
launchyear:2024
epoch:25187.92955708
epochday:187
tleage:1
tleclassification:U
active:1
name:CHAMRAN-1
meananomly:45.3339
meanmotion:15.0775
rightascension:0.0000
declination:0.0000
semimajoraxis:6921.2175895883
altitudeatperigee:526
altitudeatapogee:560
inclination:64.0904
eccentricity:0.0024499
argumentofperigree:314.5775
nickname:CHAMRAN-1
idesg:24165B  
cosparid:2024-165B
altkm:533.1436980889
velkms:7.60328124378
velkmh:27372
onumepoch:4455
onumnow:67178.22
otype:1
otypedesc:Low Earth Orbit (LEO)
status:1
timestamp:2025-07-06T22:18:34+00:00
nowjuliandate:2460863.9586993
nowepochdate:25188.4586921296
TLE:
CHAMRAN-1
1 61072U 24165B   25187.92955708  .00002970  00000+0  20463-3 0  9997
2 61072  64.0904  94.2571 0024499 314.5775  45.3339 15.07749531 44556